Location: Vancouver
(49.2500°N, 123.1330°W)
Time: 19:24:53
(UTC-08:00)

A-11 Canister half - Visible Passes

Search period start: 08 February 2016 00:00
Search period end: 18 February 2016 00:00
Orbit: 1527 x 1682 km, 47.3° (Epoch: 08 February)

Date Brightness Start Highest point End Pass type
(mag) Time Alt. Az. Time Alt. Az. Time Alt. Az.
08 Feb 10.3 02:22:39 28° E 02:22:39 28° E 02:26:48 10° ENE visible
08 Feb 8.8 04:20:57 65° SW 04:22:25 76° S 04:31:49 10° E visible
08 Feb 9.1 06:19:14 15° W 06:27:14 75° SSW 06:36:44 10° ESE visible
09 Feb 10.5 02:02:10 22° E 02:02:10 22° E 02:05:13 10° ENE visible
09 Feb 8.8 04:00:28 74° S 04:00:52 75° SSE 04:10:14 10° E visible
09 Feb 9.0 05:58:45 20° W 06:05:41 75° SSW 06:15:10 10° ESE visible
10 Feb 10.8 01:41:42 17° E 01:41:42 17° E 01:43:37 10° ENE visible
10 Feb 8.9 03:39:59 72° SE 03:39:59 72° SE 03:48:40 10° E visible
10 Feb 9.0 05:38:16 26° W 05:44:08 76° SSW 05:53:36 10° ESE visible
11 Feb 11.0 01:21:11 13° E 01:21:11 13° E 01:22:03 10° ENE visible
11 Feb 9.2 03:19:29 61° ESE 03:19:29 61° ESE 03:27:05 10° E visible
11 Feb 8.9 05:17:48 33° W 05:22:35 77° S 05:32:02 10° ESE visible
12 Feb 9.5 02:59:00 50° E 02:59:00 50° E 03:05:31 10° E visible
12 Feb 8.9 04:57:17 42° W 05:01:01 78° S 05:10:27 10° ESE visible
13 Feb 9.8 02:38:30 40° E 02:38:30 40° E 02:43:57 10° E visible
13 Feb 8.8 04:36:48 52° W 04:39:28 78° S 04:48:53 10° ESE visible
13 Feb 9.4 06:35:06 10° WNW 06:43:55 50° SSW 06:52:56 10° SE visible
14 Feb 10.1 02:18:02 32° E 02:18:02 32° E 02:22:23 10° E visible
14 Feb 8.8 04:16:19 65° WSW 04:17:55 79° S 04:27:19 10° ESE visible
14 Feb 9.3 06:14:37 14° W 06:22:24 52° SSW 06:31:26 10° SE visible
15 Feb 10.4 01:57:33 25° E 01:57:33 25° E 02:00:49 10° E visible
15 Feb 8.7 03:55:51 77° SW 03:56:22 79° S 04:05:45 10° ESE visible
15 Feb 9.2 05:54:09 19° W 06:00:52 53° SSW 06:09:55 10° SE visible
16 Feb 10.7 01:37:06 19° E 01:37:06 19° E 01:39:15 10° E visible
16 Feb 8.8 03:35:24 77° SE 03:35:24 77° SE 03:44:11 10° E visible
16 Feb 9.2 05:33:42 25° W 05:39:20 55° SSW 05:48:26 10° SE visible
17 Feb 10.9 01:16:41 14° E 01:16:41 14° E 01:17:42 10° E visible
17 Feb 9.1 03:14:59 63° ESE 03:14:59 63° ESE 03:22:37 10° E visible
17 Feb 9.1 05:13:17 31° W 05:17:49 56° SSW 05:26:55 10° SE visible
